Location: Gravenhurst
(44.9196°N, 79.3742°W)
Time: 01:47:11
(UTC-05:00)

N. Korean satellite - Pass Details

Date: 29 October 2019
Orbit: 456 x 506 km, 97.2° (Epoch: 12 November)

Event Time Altitude Azimuth Distance (km) Brightness Sun altitude
Rises 06:23:01 0° 27° (NNE) 2,592 10.6 -16.2°
Reaches altitude 10° 06:25:31 10° 44° (NE) 1,711 9.9 -15.7°
Maximum altitude 06:28:18 20° 93° (E) 1,204 9.6 -15.2°
Drops below altitude 10° 06:31:06 10° 143° (SE) 1,712 9.9 -14.7°
Sets 06:33:35 0° 160° (SSE) 2,594 10.6 -14.3°
